Regional Weather Roundup
Issued by NWS

Home | Current Version | Previous Version | Text Only | Print | Product List | Glossary Off
Versions: 1 2 3 4 5 6 7 8 9 10 11 12 13 14 15 16 17 18 19 20 21 22 23 24 25 26 27 28 29 30 31 32 33 34 35 36 37 38 39 40 41 42 43 44 45 46 47 48 49 50

000
ASUS43 KDTX 011501
RWRMI
MICHIGAN HOURLY REGIONAL WEATHER ROUNDUP
NATIONAL WEATHER SERVICE DETROIT/PONTIAC MI
1100 AM EDT WED JUL 01 2015

NOTE: "FAIR" INDICATES FEW OR NO CLOUDS BELOW 12,000 FEET WITH NO
SIGNIFICANT WEATHER AND/OR OBSTRUCTION TO VISIBILITY.

MIZ047>049-052>055-059>063-066>070-074>076-081>083-011600-
SOUTHEAST LOWER MICHIGAN

CITY           SKY/WX    TMP DP  RH WIND       PRES   REMARKS
ADRIAN         CLOUDY    65  58  78 W12       29.91S
ALMA           CLOUDY    58  55  89 W6        29.92R
ANN ARBOR      CLOUDY    64  59  83 NW6       29.90S
BAD AXE        CLOUDY    64  59  86 NW7       29.88R
CARO           CLOUDY    59  57  92 SW7       29.89R FOG
DETROIT CITY   CLOUDY    68  58  70 W8        29.88S
DETROIT        CLOUDY    67  60  78 W9        29.90R
FLINT          CLOUDY    63  56  78 NW8       29.90S
GROSSE ILE     CLOUDY    70  64  83 W9        29.88R
HILLSDALE      CLOUDY    63  59  86 W6        29.92S
HOWELL         CLOUDY    62  58  89 NW5       29.90S

CITY           SKY/WX    TMP DP  RH WIND       PRES   REMARKS
JACKSON        CLOUDY    60  57  89 NW8       29.92S
LAMBERTVILLE   PTSUNNY   69  60  74 W7        29.90F
LANSING        CLOUDY    59  55  87 NW7       29.92S
LAPEER         CLOUDY    59  57  94 NW5       29.90R FOG
MASON          CLOUDY    57  55  94 W8        29.92S
MONROE         CLOUDY    68  61  78 NW7       29.88F
MT. CLEMENS    CLOUDY    67  61  80 NW8       29.86R
PONTIAC        PTSUNNY   63  58  83 W8        29.89R
PORT HOPE        N/A     61  58  90 CALM      29.86R
PORT HURON     CLOUDY    64  59  82 W5        29.88R
TRI CITIES     CLOUDY    62  55  77 W5        29.90S
MIDLAND        CLOUDY    62  55  78 NW9       29.89S
TROY           CLOUDY    65  60  84 NW6       29.90S
SAGINAW HB     CLOUDY    61  55  82 W6        29.89S
$$
MIZ043>046-050>051-056>058-064>065-071>073-077>080-011600-
SOUTHWEST LOWER MICHIGAN

CITY           SKY/WX    TMP DP  RH WIND       PRES   REMARKS
BATTLE CREEK   CLOUDY    62  55  77 NW8       29.93S
BENTON HARBOR  CLOUDY    60  53  77 VRB6      29.97R
BIG RAPIDS     CLOUDY    58  49  70 W6        29.92S
COLDWATER      CLOUDY    61  56  82 NW5       29.93S
FREMONT        CLOUDY    59  51  75 NW9       29.94R
HOLLAND        MOSUNNY   61  51  70 NW10G17   29.96R
GRAND RAPIDS   CLOUDY    59  52  77 W7        29.94R
IONIA          CLOUDY    59  55  85 W5        29.92S
KALAMAZOO      PTSUNNY   63  53  70 VRB7      29.94S
LUDINGTON      CLOUDY    56  52  86 N13       29.96S
MARSHALL       CLOUDY    60  55  83 NW5       29.92S
MOUNT PLEASANT CLOUDY    59  53  80 NW5       29.91R
MUSKEGON       PTSUNNY   60  49  66 NW10      29.95R
SOUTH HAVEN    CLOUDY    59  51  75 NW9       29.97R
$$
MIZ016>042-011600-
NORTHERN LOWER MICHIGAN

CITY           SKY/WX    TMP DP  RH WIND       PRES   REMARKS
ALPENA         CLOUDY    59  56  89 NW10      29.89R
BEAVER ISLAND  CLOUDY    52  48  87 NW8       29.93S
BELLAIRE       CLOUDY    55  51  86 NW5       29.93R
CADILLAC       CLOUDY    55  49  83 NW7       29.92S
CHARLEVOIX     CLOUDY    53  52  95 N7        29.95S
FRANKFORT      CLOUDY    53  47  78 NW6       29.95S HAZE
GAYLORD        CLOUDY    53  53 100 W9        29.91S FOG
GRAYLING       CLOUDY    55  51  86 W7        29.92S
HARBOR SPRINGS CLOUDY    56  53  91 NW5       29.91S
HOUGHTON LAKE  CLOUDY    55  51  86 NW8       29.92F
MANISTEE       CLOUDY    52  46  82 N10G17    29.96R
OSCODA         CLOUDY    64  56  75 N9        29.87S
PELLSTON       CLOUDY    57  54  89 NW8       29.91S
ROGERS CITY    CLOUDY    56  55  97 N5        29.90S
TRAVERSE CITY  CLOUDY    54  49  83 NW8       29.93S
$$
MIZ007>008-015-011600-
EASTERN UPPER MICHIGAN

CITY           SKY/WX    TMP DP  RH WIND       PRES   REMARKS
KINROSS        CLOUDY    55  52  88 NW10      29.90S
MACKINAC ISLAN CLOUDY    57  55  94 NW3       29.89F
NEWBERRY       CLOUDY    53  48  84 NW9       29.94S
S. S. MARIE    CLOUDY    57  51  80 W5        29.90S
MUNISING         N/A     49  44  83 NW14      30.00R
$$
MIZ004>006-011>014-085-011600-
CENTRAL UPPER MICHIGAN

CITY           SKY/WX    TMP DP  RH WIND       PRES   REMARKS
MANISTIQUE     CLOUDY    56  47  72 NW14      29.94S
ESCANABA       PTSUNNY  N/A N/A N/A N12       29.97S
MENOMINEE      CLOUDY    54  45  71 N7        29.98S
$$
MIZ001>003-009>011-084-011600-
WESTERN UPPER MICHIGAN

CITY           SKY/WX    TMP DP  RH WIND       PRES   REMARKS
IRON MOUNTAIN  SUNNY     60  43  53 N16G22    29.98F
HOUGHTON       SUNNY     60  44  55 VRB3      30.02F
COPPER HARBOR    N/A     54  44  69 N7        30.03S
IRONWOOD       SUNNY     59  45  58 NE5       30.01S
$$

ABBREVIATIONS USED IN REMARKS
   TC - TEMPERATURE IN CELSIUS
  WCI - WIND CHILL INDEX
   HX - HEAT INDEX
  VSB - VISIBILITY



USA.gov is the U.S. government's official web portal to all federal, state and local government web resources and services.